Time,TemperatureF,DewpointF,PressureIn,WindDirection,WindDirectionDegrees,WindSpeedMPH,WindSpeedGustMPH,Humidity,HourlyPrecipIn,Conditions,Clouds,dailyrainin,SoftwareType,DateUTC
2013-01-20 00:00:00,25.2,23.7,30.27,N/A,-737280,0.0,-999.0,94,0.00,,,0.07,Wunderground v.1.15,2013-01-20 05:00:00,
2013-01-20 00:05:00,25.2,23.7,30.27,N/A,-737280,0.0,-999.0,94,0.00,,,0.07,Wunderground v.1.15,2013-01-20 05:05:00,
2013-01-20 00:10:00,25.2,23.7,30.27,N/A,-737280,0.0,-999.0,94,0.00,,,0.07,Wunderground v.1.15,2013-01-20 05:10:00,
2013-01-20 00:15:00,25.2,23.7,30.27,N/A,-737280,0.0,-999.0,94,0.00,,,0.07,Wunderground v.1.15,2013-01-20 05:15:00,
2013-01-20 00:20:00,25.2,23.7,30.27,N/A,-737280,0.0,-999.0,94,0.00,,,0.07,Wunderground v.1.15,2013-01-20 05:20:00,
2013-01-20 00:25:00,25.1,23.6,30.27,WSW,248,0.0,-999.0,94,0.00,,,0.07,Wunderground v.1.15,2013-01-20 05:25:00,
2013-01-20 00:30:00,25.1,23.6,30.27,WSW,248,0.0,-999.0,94,0.00,,,0.07,Wunderground v.1.15,2013-01-20 05:30:00,
2013-01-20 00:35:00,25.1,23.6,30.27,WSW,248,0.0,-999.0,94,0.00,,,0.07,Wunderground v.1.15,2013-01-20 05:35:00,
2013-01-20 00:40:00,25.0,23.5,30.27,N/A,-737280,0.0,-999.0,94,0.00,,,0.07,Wunderground v.1.15,2013-01-20 05:40:00,
2013-01-20 00:45:00,25.0,23.5,30.27,N/A,-737280,0.0,-999.0,94,0.00,,,0.07,Wunderground v.1.15,2013-01-20 05:45:00,
2013-01-20 00:50:00,25.0,23.5,30.27,N/A,-737280,0.0,-999.0,94,0.00,,,0.07,Wunderground v.1.15,2013-01-20 05:50:00,
2013-01-20 00:55:00,25.1,23.6,30.26,WSW,248,0.0,-999.0,94,0.00,,,0.07,Wunderground v.1.15,2013-01-20 05:55:00,
2013-01-20 01:00:00,25.1,23.6,30.26,WSW,248,0.0,-999.0,94,0.00,,,0.07,Wunderground v.1.15,2013-01-20 06:00:00,
2013-01-20 01:05:00,25.1,23.6,30.26,WSW,248,0.0,-999.0,94,0.00,,,0.07,Wunderground v.1.15,2013-01-20 06:05:00,
2013-01-20 01:10:00,25.3,24.1,30.27,WSW,248,0.0,-999.0,95,0.00,,,0.07,Wunderground v.1.15,2013-01-20 06:10:00,
2013-01-20 01:15:00,25.3,24.1,30.27,WSW,248,0.0,-999.0,95,0.00,,,0.07,Wunderground v.1.15,2013-01-20 06:15:00,
2013-01-20 01:20:00,25.3,24.1,30.27,WSW,248,0.0,-999.0,95,0.00,,,0.07,Wunderground v.1.15,2013-01-20 06:20:00,
2013-01-20 01:25:00,25.1,23.9,30.27,WSW,248,1.0,-999.0,95,0.00,,,0.07,Wunderground v.1.15,2013-01-20 06:25:00,
2013-01-20 01:30:00,25.1,23.9,30.27,WSW,248,1.0,-999.0,95,0.00,,,0.07,Wunderground v.1.15,2013-01-20 06:30:00,
2013-01-20 01:35:00,25.1,23.9,30.27,WSW,248,1.0,-999.0,95,0.00,,,0.07,Wunderground v.1.15,2013-01-20 06:35:00,
2013-01-20 01:40:00,24.8,23.3,30.26,N/A,-737280,0.0,-999.0,94,0.00,,,0.07,Wunderground v.1.15,2013-01-20 06:40:00,
2013-01-20 01:45:00,24.8,23.3,30.26,N/A,-737280,0.0,-999.0,94,0.00,,,0.07,Wunderground v.1.15,2013-01-20 06:45:00,
2013-01-20 01:50:00,24.8,23.3,30.26,N/A,-737280,0.0,-999.0,94,0.00,,,0.07,Wunderground v.1.15,2013-01-20 06:50:00,
2013-01-20 01:55:00,24.5,23.3,30.26,N/A,-737280,0.0,-999.0,95,0.00,,,0.07,Wunderground v.1.15,2013-01-20 06:55:00,
2013-01-20 02:00:00,24.5,23.3,30.26,N/A,-737280,0.0,-999.0,95,0.00,,,0.07,Wunderground v.1.15,2013-01-20 07:00:00,
2013-01-20 02:05:00,24.5,23.3,30.26,N/A,-737280,0.0,-999.0,95,0.00,,,0.07,Wunderground v.1.15,2013-01-20 07:05:00,
2013-01-20 02:10:00,24.4,22.9,30.26,WSW,248,0.0,-999.0,94,0.00,,,0.07,Wunderground v.1.15,2013-01-20 07:10:00,
2013-01-20 02:15:00,24.4,22.9,30.26,WSW,248,0.0,-999.0,94,0.00,,,0.07,Wunderground v.1.15,2013-01-20 07:15:00,
2013-01-20 02:20:00,24.4,22.9,30.26,WSW,248,0.0,-999.0,94,0.00,,,0.07,Wunderground v.1.15,2013-01-20 07:20:00,
2013-01-20 02:25:00,24.2,22.7,30.26,WSW,248,0.0,-999.0,94,0.00,,,0.07,Wunderground v.1.15,2013-01-20 07:25:00,
2013-01-20 02:30:00,24.2,22.7,30.26,WSW,248,0.0,-999.0,94,0.00,,,0.07,Wunderground v.1.15,2013-01-20 07:30:00,
2013-01-20 02:35:00,24.2,22.7,30.26,WSW,248,0.0,-999.0,94,0.00,,,0.07,Wunderground v.1.15,2013-01-20 07:35:00,
2013-01-20 02:40:00,24.1,22.9,30.26,N/A,-737280,0.0,-999.0,95,0.00,,,0.07,Wunderground v.1.15,2013-01-20 07:40:00,
2013-01-20 02:45:00,24.1,22.9,30.26,N/A,-737280,0.0,-999.0,95,0.00,,,0.07,Wunderground v.1.15,2013-01-20 07:45:00,
2013-01-20 02:50:00,24.1,22.9,30.26,N/A,-737280,0.0,-999.0,95,0.00,,,0.07,Wunderground v.1.15,2013-01-20 07:50:00,
2013-01-20 02:55:00,23.8,22.6,30.26,N/A,-737280,0.0,-999.0,95,0.00,,,0.07,Wunderground v.1.15,2013-01-20 07:55:00,
2013-01-20 03:00:00,23.8,22.6,30.26,N/A,-737280,0.0,-999.0,95,0.00,,,0.07,Wunderground v.1.15,2013-01-20 08:00:00,
2013-01-20 03:05:00,23.8,22.6,30.26,N/A,-737280,0.0,-999.0,95,0.00,,,0.07,Wunderground v.1.15,2013-01-20 08:05:00,
2013-01-20 03:10:00,23.6,22.1,30.26,N/A,-737280,0.0,-999.0,94,0.00,,,0.07,Wunderground v.1.15,2013-01-20 08:10:00,
2013-01-20 03:15:00,23.6,22.1,30.26,N/A,-737280,0.0,-999.0,94,0.00,,,0.07,Wunderground v.1.15,2013-01-20 08:15:00,
2013-01-20 03:20:00,23.6,22.1,30.26,N/A,-737280,0.0,-999.0,94,0.00,,,0.07,Wunderground v.1.15,2013-01-20 08:20:00,
2013-01-20 03:25:00,23.7,22.2,30.26,N/A,-737280,0.0,-999.0,94,0.00,,,0.07,Wunderground v.1.15,2013-01-20 08:25:00,
2013-01-20 03:30:00,23.7,22.2,30.26,N/A,-737280,0.0,-999.0,94,0.00,,,0.07,Wunderground v.1.15,2013-01-20 08:30:00,
2013-01-20 03:35:00,23.7,22.2,30.26,N/A,-737280,0.0,-999.0,94,0.00,,,0.07,Wunderground v.1.15,2013-01-20 08:35:00,
2013-01-20 03:40:00,23.4,21.9,30.25,N/A,-737280,0.0,-999.0,94,0.00,,,0.07,Wunderground v.1.15,2013-01-20 08:40:00,
2013-01-20 03:45:00,23.4,21.9,30.25,N/A,-737280,0.0,-999.0,94,0.00,,,0.07,Wunderground v.1.15,2013-01-20 08:45:00,
2013-01-20 03:50:00,23.4,21.9,30.25,N/A,-737280,0.0,-999.0,94,0.00,,,0.07,Wunderground v.1.15,2013-01-20 08:50:00,
2013-01-20 03:55:00,23.2,21.7,30.25,WSW,248,0.0,-999.0,94,0.00,,,0.07,Wunderground v.1.15,2013-01-20 08:55:00,
2013-01-20 04:00:00,23.2,21.7,30.25,WSW,248,0.0,-999.0,94,0.00,,,0.07,Wunderground v.1.15,2013-01-20 09:00:00,
2013-01-20 04:05:00,23.2,21.7,30.25,WSW,248,0.0,-999.0,94,0.00,,,0.07,Wunderground v.1.15,2013-01-20 09:05:00,
2013-01-20 04:10:00,23.1,21.6,30.25,N/A,-737280,0.0,-999.0,94,0.00,,,0.07,Wunderground v.1.15,2013-01-20 09:10:00,
2013-01-20 04:15:00,23.1,21.6,30.25,N/A,-737280,0.0,-999.0,94,0.00,,,0.07,Wunderground v.1.15,2013-01-20 09:15:00,
2013-01-20 04:20:00,23.1,21.6,30.25,N/A,-737280,0.0,-999.0,94,0.00,,,0.07,Wunderground v.1.15,2013-01-20 09:20:00,
2013-01-20 04:25:00,22.9,21.4,30.24,N/A,-737280,0.0,-999.0,94,0.00,,,0.07,Wunderground v.1.15,2013-01-20 09:25:00,
2013-01-20 04:30:00,22.9,21.4,30.24,N/A,-737280,0.0,-999.0,94,0.00,,,0.07,Wunderground v.1.15,2013-01-20 09:30:00,
2013-01-20 04:35:00,22.9,21.4,30.24,N/A,-737280,0.0,-999.0,94,0.00,,,0.07,Wunderground v.1.15,2013-01-20 09:35:00,
2013-01-20 04:40:00,22.9,21.4,30.24,N/A,-737280,0.0,-999.0,94,0.00,,,0.07,Wunderground v.1.15,2013-01-20 09:40:00,
2013-01-20 04:45:00,22.9,21.4,30.24,N/A,-737280,0.0,-999.0,94,0.00,,,0.07,Wunderground v.1.15,2013-01-20 09:45:00,
2013-01-20 04:50:00,22.9,21.4,30.24,N/A,-737280,0.0,-999.0,94,0.00,,,0.07,Wunderground v.1.15,2013-01-20 09:50:00,
2013-01-20 04:55:00,22.9,21.4,30.24,WSW,248,0.0,-999.0,94,0.00,,,0.07,Wunderground v.1.15,2013-01-20 09:55:00,
2013-01-20 05:00:00,22.9,21.4,30.24,WSW,248,0.0,-999.0,94,0.00,,,0.07,Wunderground v.1.15,2013-01-20 10:00:00,
2013-01-20 05:05:00,22.9,21.4,30.24,WSW,248,0.0,-999.0,94,0.00,,,0.07,Wunderground v.1.15,2013-01-20 10:05:00,
2013-01-20 05:10:00,22.8,21.3,30.24,WSW,248,0.0,-999.0,94,0.00,,,0.07,Wunderground v.1.15,2013-01-20 10:10:00,
2013-01-20 05:15:00,22.8,21.3,30.24,WSW,248,0.0,-999.0,94,0.00,,,0.07,Wunderground v.1.15,2013-01-20 10:15:00,
2013-01-20 05:20:00,22.8,21.3,30.24,WSW,248,0.0,-999.0,94,0.00,,,0.07,Wunderground v.1.15,2013-01-20 10:20:00,
2013-01-20 05:25:00,22.6,21.1,30.24,N/A,-737280,0.0,-999.0,94,0.00,,,0.07,Wunderground v.1.15,2013-01-20 10:25:00,
2013-01-20 05:30:00,22.6,21.1,30.24,N/A,-737280,0.0,-999.0,94,0.00,,,0.07,Wunderground v.1.15,2013-01-20 10:30:00,
2013-01-20 05:35:00,22.6,21.1,30.24,N/A,-737280,0.0,-999.0,94,0.00,,,0.07,Wunderground v.1.15,2013-01-20 10:35:00,
2013-01-20 05:40:00,22.4,20.9,30.24,N/A,-737280,0.0,-999.0,94,0.00,,,0.07,Wunderground v.1.15,2013-01-20 10:40:00,
2013-01-20 05:45:00,22.4,20.9,30.24,N/A,-737280,0.0,-999.0,94,0.00,,,0.07,Wunderground v.1.15,2013-01-20 10:45:00,
2013-01-20 05:50:00,22.4,20.9,30.24,N/A,-737280,0.0,-999.0,94,0.00,,,0.07,Wunderground v.1.15,2013-01-20 10:50:00,
2013-01-20 05:55:00,22.5,21.0,30.24,N/A,-737280,0.0,-999.0,94,0.00,,,0.07,Wunderground v.1.15,2013-01-20 10:55:00,
2013-01-20 06:00:00,22.5,21.0,30.24,N/A,-737280,0.0,-999.0,94,0.00,,,0.07,Wunderground v.1.15,2013-01-20 11:00:00,
2013-01-20 06:05:00,22.5,21.0,30.24,N/A,-737280,0.0,-999.0,94,0.00,,,0.07,Wunderground v.1.15,2013-01-20 11:05:00,
2013-01-20 06:10:00,22.5,21.0,30.24,N/A,-737280,0.0,-999.0,94,0.00,,,0.07,Wunderground v.1.15,2013-01-20 11:10:00,
2013-01-20 06:15:00,22.5,21.0,30.24,N/A,-737280,0.0,-999.0,94,0.00,,,0.07,Wunderground v.1.15,2013-01-20 11:15:00,
2013-01-20 06:20:00,22.5,21.0,30.24,N/A,-737280,0.0,-999.0,94,0.00,,,0.07,Wunderground v.1.15,2013-01-20 11:20:00,
2013-01-20 06:25:00,22.5,21.0,30.24,WSW,248,0.0,-999.0,94,0.00,,,0.07,Wunderground v.1.15,2013-01-20 11:25:00,
2013-01-20 06:30:00,22.5,21.0,30.24,WSW,248,0.0,-999.0,94,0.00,,,0.07,Wunderground v.1.15,2013-01-20 11:30:00,
2013-01-20 06:35:00,22.5,21.0,30.24,WSW,248,0.0,-999.0,94,0.00,,,0.07,Wunderground v.1.15,2013-01-20 11:35:00,
2013-01-20 06:40:00,22.5,21.0,30.24,N/A,-737280,0.0,-999.0,94,0.00,,,0.07,Wunderground v.1.15,2013-01-20 11:40:00,
2013-01-20 06:45:00,22.5,21.0,30.24,N/A,-737280,0.0,-999.0,94,0.00,,,0.07,Wunderground v.1.15,2013-01-20 11:45:00,
2013-01-20 06:50:00,22.5,21.0,30.24,N/A,-737280,0.0,-999.0,94,0.00,,,0.07,Wunderground v.1.15,2013-01-20 11:50:00,
2013-01-20 06:55:00,23.0,21.5,30.24,WSW,248,0.0,-999.0,94,0.00,,,0.07,Wunderground v.1.15,2013-01-20 11:55:00,
2013-01-20 07:00:00,23.0,21.5,30.24,WSW,248,0.0,-999.0,94,0.00,,,0.07,Wunderground v.1.15,2013-01-20 12:00:00,
2013-01-20 07:05:00,23.0,21.5,30.24,WSW,248,0.0,-999.0,94,0.00,,,0.07,Wunderground v.1.15,2013-01-20 12:05:00,
2013-01-20 07:10:00,23.7,22.5,30.24,N/A,-737280,0.0,-999.0,95,0.00,,,0.07,Wunderground v.1.15,2013-01-20 12:10:00,
2013-01-20 07:15:00,23.7,22.5,30.24,N/A,-737280,0.0,-999.0,95,0.00,,,0.07,Wunderground v.1.15,2013-01-20 12:15:00,
2013-01-20 07:20:00,23.7,22.5,30.24,N/A,-737280,0.0,-999.0,95,0.00,,,0.07,Wunderground v.1.15,2013-01-20 12:20:00,
2013-01-20 07:25:00,24.7,23.5,30.24,WSW,248,0.0,-999.0,95,0.00,,,0.07,Wunderground v.1.15,2013-01-20 12:25:00,
2013-01-20 07:30:00,24.7,23.5,30.24,WSW,248,0.0,-999.0,95,0.00,,,0.07,Wunderground v.1.15,2013-01-20 12:30:00,
2013-01-20 07:35:00,24.7,23.5,30.24,WSW,248,0.0,-999.0,95,0.00,,,0.07,Wunderground v.1.15,2013-01-20 12:35:00,
2013-01-20 07:40:00,26.1,24.9,30.25,WSW,248,1.0,-999.0,95,0.00,,,0.07,Wunderground v.1.15,2013-01-20 12:40:00,
2013-01-20 07:45:00,26.1,24.9,30.25,WSW,248,1.0,-999.0,95,0.00,,,0.07,Wunderground v.1.15,2013-01-20 12:45:00,
2013-01-20 07:50:00,26.1,24.9,30.25,WSW,248,1.0,-999.0,95,0.00,,,0.07,Wunderground v.1.15,2013-01-20 12:50:00,
2013-01-20 07:55:00,25.9,24.7,30.25,WSW,248,1.0,-999.0,95,0.00,,,0.07,Wunderground v.1.15,2013-01-20 12:55:00,
2013-01-20 08:00:00,25.9,24.7,30.25,WSW,248,1.0,-999.0,95,0.00,,,0.07,Wunderground v.1.15,2013-01-20 13:00:00,
2013-01-20 08:05:00,25.9,24.7,30.25,WSW,248,1.0,-999.0,95,0.00,,,0.07,Wunderground v.1.15,2013-01-20 13:05:00,
2013-01-20 08:10:00,26.6,25.4,30.25,WSW,248,2.0,-999.0,95,0.00,,,0.07,Wunderground v.1.15,2013-01-20 13:10:00,
2013-01-20 08:15:00,26.6,25.4,30.25,WSW,248,2.0,-999.0,95,0.00,,,0.07,Wunderground v.1.15,2013-01-20 13:15:00,
2013-01-20 08:20:00,26.6,25.4,30.25,WSW,248,2.0,-999.0,95,0.00,,,0.07,Wunderground v.1.15,2013-01-20 13:20:00,
2013-01-20 08:25:00,26.8,25.6,30.25,WSW,248,1.0,-999.0,95,0.00,,,0.07,Wunderground v.1.15,2013-01-20 13:25:00,
2013-01-20 08:30:00,26.8,25.6,30.25,WSW,248,1.0,-999.0,95,0.00,,,0.07,Wunderground v.1.15,2013-01-20 13:30:00,
2013-01-20 08:35:00,26.8,25.6,30.25,WSW,248,1.0,-999.0,95,0.00,,,0.07,Wunderground v.1.15,2013-01-20 13:35:00,
2013-01-20 08:40:00,27.5,26.3,30.26,WSW,248,1.0,-999.0,95,0.00,,,0.07,Wunderground v.1.15,2013-01-20 13:40:00,
2013-01-20 08:45:00,27.5,26.3,30.26,WSW,248,1.0,-999.0,95,0.00,,,0.07,Wunderground v.1.15,2013-01-20 13:45:00,
2013-01-20 08:50:00,27.5,26.3,30.26,WSW,248,1.0,-999.0,95,0.00,,,0.07,Wunderground v.1.15,2013-01-20 13:50:00,
2013-01-20 08:55:00,28.3,27.1,30.26,WSW,248,2.0,-999.0,95,0.00,,,0.07,Wunderground v.1.15,2013-01-20 13:55:00,
2013-01-20 09:00:00,28.3,27.1,30.26,WSW,248,2.0,-999.0,95,0.00,,,0.07,Wunderground v.1.15,2013-01-20 14:00:00,
2013-01-20 09:05:00,28.3,27.1,30.26,WSW,248,2.0,-999.0,95,0.00,,,0.07,Wunderground v.1.15,2013-01-20 14:05:00,
2013-01-20 09:10:00,29.7,28.4,30.26,WNW,293,2.0,-999.0,95,0.00,,,0.07,Wunderground v.1.15,2013-01-20 14:10:00,
2013-01-20 09:15:00,29.7,28.4,30.26,WNW,293,2.0,-999.0,95,0.00,,,0.07,Wunderground v.1.15,2013-01-20 14:15:00,
2013-01-20 09:20:00,29.7,28.4,30.26,WNW,293,2.0,-999.0,95,0.00,,,0.07,Wunderground v.1.15,2013-01-20 14:20:00,
2013-01-20 09:25:00,30.9,29.6,30.26,WNW,293,2.0,-999.0,95,0.00,,,0.07,Wunderground v.1.15,2013-01-20 14:25:00,
2013-01-20 09:30:00,30.9,29.6,30.26,WNW,293,2.0,-999.0,95,0.00,,,0.07,Wunderground v.1.15,2013-01-20 14:30:00,
2013-01-20 09:35:00,30.9,29.6,30.26,WNW,293,2.0,-999.0,95,0.00,,,0.07,Wunderground v.1.15,2013-01-20 14:35:00,
2013-01-20 09:40:00,32.6,30.5,30.26,WNW,293,3.0,-999.0,92,0.00,,,0.07,Wunderground v.1.15,2013-01-20 14:40:00,
2013-01-20 09:45:00,32.6,30.5,30.26,WNW,293,3.0,-999.0,92,0.00,,,0.07,Wunderground v.1.15,2013-01-20 14:45:00,
2013-01-20 09:50:00,32.6,30.5,30.26,WNW,293,3.0,-999.0,92,0.00,,,0.07,Wunderground v.1.15,2013-01-20 14:50:00,
2013-01-20 09:55:00,34.4,31.5,30.26,NW,315,3.0,-999.0,89,0.00,,,0.07,Wunderground v.1.15,2013-01-20 14:55:00,
2013-01-20 10:00:00,34.4,31.5,30.26,NW,315,3.0,-999.0,89,0.00,,,0.07,Wunderground v.1.15,2013-01-20 15:00:00,
2013-01-20 10:05:00,34.4,31.5,30.26,NW,315,3.0,-999.0,89,0.00,,,0.07,Wunderground v.1.15,2013-01-20 15:05:00,
2013-01-20 10:10:00,35.0,31.5,30.26,NW,315,2.0,-999.0,87,0.00,,,0.07,Wunderground v.1.15,2013-01-20 15:10:00,
2013-01-20 10:15:00,35.0,31.5,30.26,NW,315,2.0,-999.0,87,0.00,,,0.07,Wunderground v.1.15,2013-01-20 15:15:00,
2013-01-20 10:20:00,35.0,31.5,30.26,NW,315,2.0,-999.0,87,0.00,,,0.07,Wunderground v.1.15,2013-01-20 15:20:00,
2013-01-20 10:25:00,36.4,32.3,30.26,WNW,293,3.0,-999.0,85,0.01,,,0.07,Wunderground v.1.15,2013-01-20 15:25:00,
2013-01-20 10:30:00,36.4,32.3,30.26,WNW,293,3.0,-999.0,85,0.01,,,0.07,Wunderground v.1.15,2013-01-20 15:30:00,
2013-01-20 10:35:00,36.4,32.3,30.26,WNW,293,3.0,-999.0,85,0.01,,,0.07,Wunderground v.1.15,2013-01-20 15:35:00,
2013-01-20 10:40:00,37.3,32.6,30.26,West,270,3.0,-999.0,83,0.02,,,0.07,Wunderground v.1.15,2013-01-20 15:40:00,
2013-01-20 10:45:00,37.3,32.6,30.26,West,270,3.0,-999.0,83,0.02,,,0.07,Wunderground v.1.15,2013-01-20 15:45:00,
2013-01-20 10:50:00,37.3,32.6,30.26,West,270,3.0,-999.0,83,0.02,,,0.07,Wunderground v.1.15,2013-01-20 15:50:00,
2013-01-20 10:55:00,38.1,32.8,30.26,West,270,2.0,-999.0,81,0.03,,,0.07,Wunderground v.1.15,2013-01-20 15:55:00,
2013-01-20 11:00:00,38.1,32.8,30.26,West,270,2.0,-999.0,81,0.03,,,0.07,Wunderground v.1.15,2013-01-20 16:00:00,
2013-01-20 11:05:00,38.1,32.8,30.26,West,270,2.0,-999.0,81,0.03,,,0.07,Wunderground v.1.15,2013-01-20 16:05:00,
2013-01-20 11:10:00,38.4,33.1,30.25,West,270,2.0,-999.0,81,0.04,,,0.07,Wunderground v.1.15,2013-01-20 16:10:00,
2013-01-20 11:15:00,38.4,33.1,30.25,West,270,2.0,-999.0,81,0.04,,,0.07,Wunderground v.1.15,2013-01-20 16:15:00,
2013-01-20 11:20:00,38.4,33.1,30.25,West,270,2.0,-999.0,81,0.04,,,0.07,Wunderground v.1.15,2013-01-20 16:20:00,
2013-01-20 11:25:00,40.0,33.7,30.25,WNW,293,3.0,-999.0,78,0.04,,,0.07,Wunderground v.1.15,2013-01-20 16:25:00,
2013-01-20 11:30:00,40.0,33.7,30.25,WNW,293,3.0,-999.0,78,0.04,,,0.07,Wunderground v.1.15,2013-01-20 16:30:00,
2013-01-20 11:35:00,40.0,33.7,30.25,WNW,293,3.0,-999.0,78,0.04,,,0.07,Wunderground v.1.15,2013-01-20 16:35:00,
2013-01-20 11:40:00,41.6,34.3,30.24,NW,315,4.0,-999.0,75,0.03,,,0.07,Wunderground v.1.15,2013-01-20 16:40:00,
2013-01-20 11:45:00,41.6,34.3,30.24,NW,315,4.0,-999.0,75,0.03,,,0.07,Wunderground v.1.15,2013-01-20 16:45:00,
2013-01-20 11:50:00,41.6,34.3,30.24,NW,315,4.0,-999.0,75,0.03,,,0.07,Wunderground v.1.15,2013-01-20 16:50:00,
2013-01-20 11:55:00,42.3,34.9,30.23,NW,315,4.0,-999.0,75,0.03,,,0.07,Wunderground v.1.15,2013-01-20 16:55:00,
2013-01-20 12:00:00,42.3,34.9,30.23,NW,315,4.0,-999.0,75,0.03,,,0.07,Wunderground v.1.15,2013-01-20 17:00:00,
2013-01-20 12:05:00,42.3,34.9,30.23,NW,315,4.0,-999.0,75,0.03,,,0.07,Wunderground v.1.15,2013-01-20 17:05:00,
2013-01-20 12:10:00,42.5,34.5,30.23,NW,315,4.0,-999.0,73,0.02,,,0.07,Wunderground v.1.15,2013-01-20 17:10:00,
2013-01-20 12:15:00,42.5,34.5,30.23,NW,315,4.0,-999.0,73,0.02,,,0.07,Wunderground v.1.15,2013-01-20 17:15:00,
2013-01-20 12:20:00,42.5,34.5,30.23,NW,315,4.0,-999.0,73,0.02,,,0.07,Wunderground v.1.15,2013-01-20 17:20:00,
2013-01-20 12:25:00,43.3,34.9,30.22,NW,315,4.0,-999.0,72,0.01,,,0.07,Wunderground v.1.15,2013-01-20 17:25:00,
2013-01-20 12:30:00,43.3,34.9,30.22,NW,315,4.0,-999.0,72,0.01,,,0.07,Wunderground v.1.15,2013-01-20 17:30:00,
2013-01-20 12:35:00,43.3,34.9,30.22,NW,315,4.0,-999.0,72,0.01,,,0.07,Wunderground v.1.15,2013-01-20 17:35:00,
2013-01-20 12:40:00,44.1,35.6,30.21,NW,315,4.0,-999.0,72,0.02,,,0.07,Wunderground v.1.15,2013-01-20 17:40:00,
2013-01-20 12:45:00,44.1,35.6,30.21,NW,315,4.0,-999.0,72,0.02,,,0.07,Wunderground v.1.15,2013-01-20 17:45:00,
2013-01-20 12:50:00,44.1,35.6,30.21,NW,315,4.0,-999.0,72,0.02,,,0.07,Wunderground v.1.15,2013-01-20 17:50:00,
2013-01-20 12:55:00,44.1,34.9,30.20,NW,315,4.0,-999.0,70,0.01,,,0.07,Wunderground v.1.15,2013-01-20 17:55:00,
2013-01-20 13:00:00,44.1,34.9,30.20,NW,315,4.0,-999.0,70,0.01,,,0.07,Wunderground v.1.15,2013-01-20 18:00:00,
2013-01-20 13:05:00,44.1,34.9,30.20,NW,315,4.0,-999.0,70,0.01,,,0.07,Wunderground v.1.15,2013-01-20 18:05:00,
2013-01-20 13:10:00,44.3,35.1,30.20,NW,315,3.0,-999.0,70,0.01,,,0.07,Wunderground v.1.15,2013-01-20 18:10:00,
2013-01-20 13:15:00,44.3,35.1,30.20,NW,315,3.0,-999.0,70,0.01,,,0.07,Wunderground v.1.15,2013-01-20 18:15:00,
2013-01-20 13:20:00,44.3,35.1,30.20,NW,315,3.0,-999.0,70,0.01,,,0.07,Wunderground v.1.15,2013-01-20 18:20:00,
2013-01-20 13:25:00,44.9,34.6,30.19,NW,315,3.0,-999.0,67,0.01,,,0.07,Wunderground v.1.15,2013-01-20 18:25:00,
2013-01-20 13:30:00,44.9,34.6,30.19,NW,315,3.0,-999.0,67,0.01,,,0.07,Wunderground v.1.15,2013-01-20 18:30:00,
2013-01-20 13:35:00,44.9,34.6,30.19,NW,315,3.0,-999.0,67,0.01,,,0.07,Wunderground v.1.15,2013-01-20 18:35:00,
2013-01-20 13:40:00,45.3,35.4,30.18,NW,315,5.0,-999.0,68,0.00,,,0.07,Wunderground v.1.15,2013-01-20 18:40:00,
2013-01-20 13:45:00,45.3,35.4,30.18,NW,315,5.0,-999.0,68,0.00,,,0.07,Wunderground v.1.15,2013-01-20 18:45:00,
2013-01-20 13:50:00,45.3,35.4,30.18,NW,315,5.0,-999.0,68,0.00,,,0.07,Wunderground v.1.15,2013-01-20 18:50:00,
2013-01-20 13:55:00,45.5,35.2,30.18,WNW,293,4.0,-999.0,67,0.00,,,0.07,Wunderground v.1.15,2013-01-20 18:55:00,
2013-01-20 14:00:00,45.5,35.2,30.18,WNW,293,4.0,-999.0,67,0.00,,,0.07,Wunderground v.1.15,2013-01-20 19:00:00,
2013-01-20 14:05:00,45.5,35.2,30.18,WNW,293,4.0,-999.0,67,0.00,,,0.07,Wunderground v.1.15,2013-01-20 19:05:00,
2013-01-20 14:10:00,45.3,34.2,30.18,NNW,338,3.0,-999.0,65,0.00,,,0.07,Wunderground v.1.15,2013-01-20 19:10:00,
2013-01-20 14:15:00,45.3,34.2,30.18,NNW,338,3.0,-999.0,65,0.00,,,0.07,Wunderground v.1.15,2013-01-20 19:15:00,
2013-01-20 14:20:00,45.3,34.2,30.18,NNW,338,3.0,-999.0,65,0.00,,,0.07,Wunderground v.1.15,2013-01-20 19:20:00,
2013-01-20 14:25:00,45.0,34.3,30.18,NW,315,3.0,-999.0,66,0.00,,,0.07,Wunderground v.1.15,2013-01-20 19:25:00,
2013-01-20 14:30:00,45.0,34.3,30.18,NW,315,3.0,-999.0,66,0.00,,,0.07,Wunderground v.1.15,2013-01-20 19:30:00,
2013-01-20 14:35:00,45.0,34.3,30.18,NW,315,3.0,-999.0,66,0.00,,,0.07,Wunderground v.1.15,2013-01-20 19:35:00,
2013-01-20 14:40:00,44.5,34.6,30.18,SW,225,2.0,-999.0,68,0.00,,,0.07,Wunderground v.1.15,2013-01-20 19:40:00,
2013-01-20 14:45:00,44.5,34.6,30.18,SW,225,2.0,-999.0,68,0.00,,,0.07,Wunderground v.1.15,2013-01-20 19:45:00,
2013-01-20 14:50:00,44.5,34.6,30.18,SW,225,2.0,-999.0,68,0.00,,,0.07,Wunderground v.1.15,2013-01-20 19:50:00,
2013-01-20 14:55:00,46.4,34.9,30.18,WNW,293,4.0,-999.0,64,0.00,,,0.07,Wunderground v.1.15,2013-01-20 19:55:00,
2013-01-20 15:00:00,46.4,34.9,30.18,WNW,293,4.0,-999.0,64,0.00,,,0.07,Wunderground v.1.15,2013-01-20 20:00:00,
2013-01-20 15:05:00,46.4,34.9,30.18,WNW,293,4.0,-999.0,64,0.00,,,0.07,Wunderground v.1.15,2013-01-20 20:05:00,
2013-01-20 15:10:00,45.6,34.9,30.18,NW,315,4.0,-999.0,66,0.00,,,0.07,Wunderground v.1.15,2013-01-20 20:10:00,
2013-01-20 15:15:00,45.6,34.9,30.18,NW,315,4.0,-999.0,66,0.00,,,0.07,Wunderground v.1.15,2013-01-20 20:15:00,
2013-01-20 15:20:00,45.6,34.9,30.18,NW,315,4.0,-999.0,66,0.00,,,0.07,Wunderground v.1.15,2013-01-20 20:20:00,
2013-01-20 15:25:00,45.3,34.6,30.18,NW,315,5.0,-999.0,66,0.00,,,0.07,Wunderground v.1.15,2013-01-20 20:25:00,
2013-01-20 15:30:00,45.3,34.6,30.18,NW,315,5.0,-999.0,66,0.00,,,0.07,Wunderground v.1.15,2013-01-20 20:30:00,
2013-01-20 15:35:00,45.3,34.6,30.18,NW,315,5.0,-999.0,66,0.00,,,0.07,Wunderground v.1.15,2013-01-20 20:35:00,
2013-01-20 15:40:00,43.9,34.0,30.18,NW,315,4.0,-999.0,68,0.00,,,0.07,Wunderground v.1.15,2013-01-20 20:40:00,
2013-01-20 15:45:00,43.9,34.0,30.18,NW,315,4.0,-999.0,68,0.00,,,0.07,Wunderground v.1.15,2013-01-20 20:45:00,
2013-01-20 15:50:00,43.9,34.0,30.18,NW,315,4.0,-999.0,68,0.00,,,0.07,Wunderground v.1.15,2013-01-20 20:50:00,
2013-01-20 15:55:00,43.8,34.3,30.19,WNW,293,4.0,-999.0,69,0.00,,,0.07,Wunderground v.1.15,2013-01-20 20:55:00,
2013-01-20 16:00:00,43.8,34.3,30.19,WNW,293,4.0,-999.0,69,0.00,,,0.07,Wunderground v.1.15,2013-01-20 21:00:00,
2013-01-20 16:05:00,43.8,34.3,30.19,WNW,293,4.0,-999.0,69,0.00,,,0.07,Wunderground v.1.15,2013-01-20 21:05:00,
2013-01-20 16:10:00,43.0,33.9,30.19,West,270,4.0,-999.0,70,0.00,,,0.07,Wunderground v.1.15,2013-01-20 21:10:00,
2013-01-20 16:15:00,43.0,33.9,30.19,West,270,4.0,-999.0,70,0.00,,,0.07,Wunderground v.1.15,2013-01-20 21:15:00,
2013-01-20 16:20:00,43.0,33.9,30.19,West,270,4.0,-999.0,70,0.00,,,0.07,Wunderground v.1.15,2013-01-20 21:20:00,
2013-01-20 16:25:00,43.1,34.3,30.19,WNW,293,4.0,-999.0,71,0.00,,,0.07,Wunderground v.1.15,2013-01-20 21:25:00,
2013-01-20 16:30:00,43.1,34.3,30.19,WNW,293,4.0,-999.0,71,0.00,,,0.07,Wunderground v.1.15,2013-01-20 21:30:00,
2013-01-20 16:35:00,43.1,34.3,30.19,WNW,293,4.0,-999.0,71,0.00,,,0.07,Wunderground v.1.15,2013-01-20 21:35:00,
2013-01-20 16:40:00,41.3,34.0,30.19,SW,225,2.0,-999.0,75,0.00,,,0.07,Wunderground v.1.15,2013-01-20 21:40:00,
2013-01-20 16:45:00,41.3,34.0,30.19,SW,225,2.0,-999.0,75,0.00,,,0.07,Wunderground v.1.15,2013-01-20 21:45:00,
2013-01-20 16:50:00,41.3,34.0,30.19,SW,225,2.0,-999.0,75,0.00,,,0.07,Wunderground v.1.15,2013-01-20 21:50:00,
2013-01-20 16:55:00,40.2,33.6,30.19,WSW,248,2.0,-999.0,77,0.00,,,0.07,Wunderground v.1.15,2013-01-20 21:55:00,
2013-01-20 17:00:00,40.2,33.6,30.19,WSW,248,2.0,-999.0,77,0.00,,,0.07,Wunderground v.1.15,2013-01-20 22:00:00,
2013-01-20 17:05:00,40.2,33.6,30.19,WSW,248,2.0,-999.0,77,0.00,,,0.07,Wunderground v.1.15,2013-01-20 22:05:00,
2013-01-20 17:10:00,39.0,33.4,30.19,SW,225,1.0,-999.0,80,0.00,,,0.07,Wunderground v.1.15,2013-01-20 22:10:00,
2013-01-20 17:15:00,39.1,33.5,30.19,SW,229,1.0,2.0,80,0.00,,,0.07,Wunderground v.1.15,2013-01-20 22:15:00,
2013-01-20 17:26:00,38.8,33.5,30.19,SW,225,1.0,1.0,81,0.00,,,0.07,Wunderground v.1.15,2013-01-20 22:26:00,
2013-01-20 17:35:00,38.3,33.3,30.20,SW,225,0.0,1.0,82,0.00,,,0.07,Wunderground v.1.15,2013-01-20 22:35:00,
2013-01-20 17:40:00,38.0,33.3,30.20,SW,225,1.0,1.0,83,0.00,,,0.07,Wunderground v.1.15,2013-01-20 22:40:00,
2013-01-20 17:45:00,38.0,33.3,30.20,SW,225,1.0,1.0,83,0.00,,,0.07,Wunderground v.1.15,2013-01-20 22:45:00,
2013-01-20 17:55:00,37.4,33.0,30.20,SW,225,0.0,1.0,84,0.00,,,0.07,Wunderground v.1.15,2013-01-20 22:55:00,
2013-01-20 18:00:00,36.9,32.8,30.20,SW,233,1.0,1.0,85,0.00,,,0.07,Wunderground v.1.15,2013-01-20 23:00:00,
2013-01-20 18:10:00,36.1,32.3,30.20,WSW,240,1.0,1.0,86,0.00,,,0.07,Wunderground v.1.15,2013-01-20 23:10:00,
2013-01-20 18:15:00,35.7,32.2,30.20,WSW,240,1.0,2.0,87,0.00,,,0.07,Wunderground v.1.15,2013-01-20 23:15:00,
2013-01-20 18:25:00,34.8,31.9,30.21,NW,306,1.0,2.0,89,0.00,,,0.07,Wunderground v.1.15,2013-01-20 23:25:00,
2013-01-20 18:30:00,34.6,31.7,30.21,NW,306,1.0,1.0,89,0.00,,,0.07,Wunderground v.1.15,2013-01-20 23:30:00,
2013-01-20 18:40:00,34.2,31.6,30.21,WNW,302,1.0,2.0,90,0.00,,,0.07,Wunderground v.1.15,2013-01-20 23:40:00,
2013-01-20 18:45:00,33.9,31.3,30.21,WNW,284,1.0,2.0,90,0.00,,,0.07,Wunderground v.1.15,2013-01-20 23:45:00,
2013-01-20 18:50:00,33.8,31.2,30.21,WNW,284,1.0,1.0,90,0.00,,,0.07,Wunderground v.1.15,2013-01-20 23:50:00,
2013-01-20 18:55:00,33.5,30.9,30.21,WNW,284,1.0,1.0,90,0.00,,,0.07,Wunderground v.1.15,2013-01-20 23:55:00,
2013-01-20 19:00:00,33.6,31.3,30.21,WNW,284,1.0,1.0,91,0.00,,,0.07,Wunderground v.1.15,2013-01-21 00:00:00,
2013-01-20 19:10:00,33.3,31.0,30.21,WNW,284,1.0,1.0,91,0.00,,,0.07,Wunderground v.1.15,2013-01-21 00:10:00,
2013-01-20 19:20:00,32.9,30.6,30.21,WNW,284,1.0,1.0,91,0.00,,,0.07,Wunderground v.1.15,2013-01-21 00:20:00,
2013-01-20 19:25:00,32.5,30.2,30.21,WNW,284,1.0,1.0,91,0.00,,,0.07,Wunderground v.1.15,2013-01-21 00:25:00,
2013-01-20 19:30:00,32.4,30.3,30.21,WNW,284,1.0,1.0,92,0.00,,,0.07,Wunderground v.1.15,2013-01-21 00:30:00,
2013-01-20 19:40:00,32.0,29.9,30.21,WNW,284,2.0,2.0,92,0.00,,,0.07,Wunderground v.1.15,2013-01-21 00:40:00,
2013-01-20 19:45:00,31.9,29.8,30.21,WNW,284,2.0,2.0,92,0.00,,,0.07,Wunderground v.1.15,2013-01-21 00:45:00,
2013-01-20 19:50:00,31.9,29.8,30.21,WNW,284,2.0,2.0,92,0.00,,,0.07,Wunderground v.1.15,2013-01-21 00:50:00,
2013-01-20 19:55:00,31.8,29.7,30.21,WNW,284,2.0,2.0,92,0.00,,,0.07,Wunderground v.1.15,2013-01-21 00:55:00,
2013-01-20 20:00:00,31.6,29.5,30.21,WNW,284,1.0,1.0,92,0.00,,,0.07,Wunderground v.1.15,2013-01-21 01:00:00,
2013-01-20 20:10:00,31.3,29.5,30.22,WNW,284,2.0,3.0,93,0.00,,,0.07,Wunderground v.1.15,2013-01-21 01:10:00,
2013-01-20 20:15:00,31.3,29.5,30.21,WNW,284,2.0,3.0,93,0.00,,,0.07,Wunderground v.1.15,2013-01-21 01:15:00,
2013-01-20 20:25:00,31.1,29.3,30.21,WNW,284,1.0,1.0,93,0.00,,,0.07,Wunderground v.1.15,2013-01-21 01:25:00,
2013-01-20 20:35:00,30.9,29.1,30.21,WNW,284,1.0,1.0,93,0.00,,,0.07,Wunderground v.1.15,2013-01-21 01:35:00,
2013-01-20 20:45:00,30.8,29.0,30.21,WNW,284,1.0,2.0,93,0.00,,,0.07,Wunderground v.1.15,2013-01-21 01:45:00,
2013-01-20 20:50:00,30.6,28.8,30.21,WNW,284,0.0,0.0,93,0.00,,,0.07,Wunderground v.1.15,2013-01-21 01:50:00,
2013-01-20 20:55:00,30.3,28.5,30.21,WNW,284,1.0,1.0,93,0.00,,,0.07,Wunderground v.1.15,2013-01-21 01:55:00,
2013-01-20 21:00:00,30.1,28.3,30.21,WNW,284,1.0,1.0,93,0.00,,,0.07,Wunderground v.1.15,2013-01-21 02:00:00,
2013-01-20 21:10:00,29.8,28.0,30.21,WNW,284,2.0,2.0,93,0.00,,,0.07,Wunderground v.1.15,2013-01-21 02:10:00,
2013-01-20 21:15:00,29.7,27.9,30.21,WNW,284,2.0,2.0,93,0.00,,,0.07,Wunderground v.1.15,2013-01-21 02:15:00,
2013-01-20 21:25:00,29.4,27.6,30.21,WNW,284,1.0,2.0,93,0.00,,,0.07,Wunderground v.1.15,2013-01-21 02:25:00,
2013-01-20 21:30:00,29.3,27.5,30.21,WNW,284,1.0,2.0,93,0.00,,,0.07,Wunderground v.1.15,2013-01-21 02:30:00,
2013-01-20 21:35:00,29.3,27.5,30.21,WNW,284,1.0,2.0,93,0.00,,,0.07,Wunderground v.1.15,2013-01-21 02:35:00,
2013-01-20 21:40:00,29.3,27.5,30.21,WNW,284,1.0,1.0,93,0.00,,,0.07,Wunderground v.1.15,2013-01-21 02:40:00,
2013-01-20 21:45:00,29.3,27.8,30.21,WNW,284,1.0,2.0,94,0.00,,,0.07,Wunderground v.1.15,2013-01-21 02:45:00,
2013-01-20 21:55:00,29.3,27.8,30.21,WNW,284,1.0,2.0,94,0.00,,,0.07,Wunderground v.1.15,2013-01-21 02:55:00,
2013-01-20 22:00:00,29.3,27.8,30.21,WNW,284,1.0,1.0,94,0.00,,,0.07,Wunderground v.1.15,2013-01-21 03:00:00,
2013-01-20 22:05:00,29.2,27.7,30.21,WNW,284,0.0,1.0,94,0.00,,,0.07,Wunderground v.1.15,2013-01-21 03:05:00,
2013-01-20 22:10:00,28.9,27.1,30.21,WNW,284,0.0,0.0,93,0.00,,,0.07,Wunderground v.1.15,2013-01-21 03:10:00,
2013-01-20 22:15:00,28.8,27.0,30.21,WNW,284,0.0,0.0,93,0.00,,,0.07,Wunderground v.1.15,2013-01-21 03:15:00,
2013-01-20 22:25:00,28.3,26.8,30.21,WNW,284,0.0,1.0,94,0.00,,,0.07,Wunderground v.1.15,2013-01-21 03:25:00,
2013-01-20 22:30:00,28.3,26.8,30.21,WNW,284,1.0,1.0,94,0.00,,,0.07,Wunderground v.1.15,2013-01-21 03:30:00,
2013-01-20 22:40:00,28.0,26.5,30.20,WNW,284,0.0,0.0,94,0.00,,,0.07,Wunderground v.1.15,2013-01-21 03:40:00,
2013-01-20 22:45:00,27.9,26.4,30.20,WNW,284,0.0,0.0,94,0.00,,,0.07,Wunderground v.1.15,2013-01-21 03:45:00,
2013-01-20 22:50:00,27.8,26.3,30.20,WNW,284,0.0,0.0,94,0.00,,,0.07,Wunderground v.1.15,2013-01-21 03:50:00,
2013-01-20 22:55:00,27.6,26.1,30.21,WNW,284,0.0,0.0,94,0.00,,,0.07,Wunderground v.1.15,2013-01-21 03:55:00,
2013-01-20 23:00:00,27.5,26.0,30.20,WNW,284,0.0,0.0,94,0.00,,,0.07,Wunderground v.1.15,2013-01-21 04:00:00,
2013-01-20 23:10:00,27.4,25.9,30.20,WNW,284,0.0,0.0,94,0.00,,,0.07,Wunderground v.1.15,2013-01-21 04:10:00,
2013-01-20 23:15:00,27.4,25.9,30.20,WNW,284,0.0,0.0,94,0.00,,,0.07,Wunderground v.1.15,2013-01-21 04:15:00,
2013-01-20 23:25:00,27.1,25.6,30.19,WNW,284,0.0,2.0,94,0.00,,,0.07,Wunderground v.1.15,2013-01-21 04:25:00,
2013-01-20 23:30:00,27.0,25.5,30.19,WNW,284,0.0,0.0,94,0.00,,,0.07,Wunderground v.1.15,2013-01-21 04:30:00,
2013-01-20 23:40:00,26.8,25.3,30.19,WNW,284,0.0,1.0,94,0.00,,,0.07,Wunderground v.1.15,2013-01-21 04:40:00,
2013-01-20 23:45:00,26.7,25.2,30.19,WNW,284,0.0,1.0,94,0.00,,,0.07,Wunderground v.1.15,2013-01-21 04:45:00,
2013-01-20 23:50:00,26.6,25.1,30.19,WNW,284,0.0,0.0,94,0.00,,,0.07,Wunderground v.1.15,2013-01-21 04:50:00,
2013-01-20 23:55:00,26.6,25.1,30.18,WNW,284,0.0,0.0,94,0.00,,,0.07,Wunderground v.1.15,2013-01-21 04:55:00,